Location: Prairie State College
(41.5244°N, 87.6382°W)
Time: 03:49:46
(UTC-05:00)

ISS - All Passes

Search period start: 31 August 2015 00:00
Search period end: 10 September 2015 00:00
Orbit: 399 x 401 km, 51.6° (Epoch: 31 August)

Date Brightness Start Highest point End Pass type
(mag) Time Alt. Az. Time Alt. Az. Time Alt. Az.
31 Aug - 08:57:16 10° SSW 09:00:16 36° SE 09:03:18 10° ENE daylight
31 Aug - 10:33:45 10° W 10:36:42 31° NNW 10:39:39 10° NE daylight
31 Aug - 12:11:58 10° NW 12:13:51 14° N 12:15:44 10° NNE daylight
31 Aug - 13:48:50 10° NNW 13:51:10 18° NNE 13:53:32 10° ENE daylight
31 Aug - 15:24:47 10° NW 15:28:02 70° NNE 15:31:16 10° ESE daylight
31 Aug - 17:02:25 10° W 17:04:04 13° SW 17:05:38 10° SSW daylight
01 Sep - 08:04:32 10° S 08:06:50 19° SE 08:09:13 10° E daylight
01 Sep - 09:39:50 10° WSW 09:43:01 50° NNW 09:46:12 10° NE daylight
01 Sep - 11:17:49 10° NW 11:19:58 16° NNW 11:22:08 10° NNE daylight
01 Sep - 12:55:19 10° NNW 12:57:19 15° N 12:59:20 10° NE daylight
01 Sep - 14:31:18 10° NW 14:34:23 39° NNE 14:37:27 10° E daylight
01 Sep - 16:07:55 10° WNW 16:10:40 25° SW 16:13:23 10° SSE daylight
02 Sep - 08:46:10 10° SW 08:49:23 85° SSE 08:52:39 10° NE daylight
02 Sep - 10:23:36 10° WNW 10:26:08 20° NNW 10:28:40 10° NNE daylight
02 Sep - 12:01:37 10° NNW 12:03:26 14° N 12:05:14 10° NE daylight
02 Sep - 13:37:51 10° NW 13:40:39 26° NNE 13:43:26 10° E daylight
02 Sep - 15:14:02 10° WNW 15:17:11 50° SW 15:20:20 10° SE daylight
03 Sep - 07:52:47 10° SSW 07:55:52 41° SE 07:58:57 10° ENE daylight
03 Sep - 09:29:28 10° W 09:32:20 28° NNW 09:35:13 10° NE daylight
03 Sep - 11:07:41 10° NW 11:09:31 14° N 11:11:21 10° NNE daylight
03 Sep - 12:44:25 10° NNW 12:46:50 19° NNE 12:49:16 10° ENE daylight
03 Sep - 14:20:23 10° NW 14:23:38 80° NE 14:26:53 10° ESE daylight
03 Sep - 15:58:28 10° WSW 15:59:38 11° SW 16:00:41 10° SSW daylight
04 Sep - 06:59:53 10° S 07:02:23 21° SE 07:04:57 10° E daylight
04 Sep - 08:35:28 10° WSW 08:38:37 45° NNW 08:41:45 10° NE daylight
04 Sep - 10:13:31 10° NW 10:15:37 16° N 10:17:42 10° NNE daylight
04 Sep - 11:50:54 10° NNW 11:52:58 16° N 11:55:02 10° NE daylight
04 Sep - 13:26:51 10° NW 13:29:59 43° NNE 13:33:06 10° ESE daylight
04 Sep - 15:03:36 10° W 15:06:13 22° SW 15:08:47 10° S daylight
05 Sep - 06:08:09 10° SE 06:08:59 11° SE 06:09:56 10° ESE daylight
05 Sep - 07:41:43 10° SW 07:44:58 84° NNW 07:48:13 10° NE daylight
05 Sep - 09:19:17 10° WNW 09:21:45 19° NNW 09:24:11 10° NNE daylight
05 Sep - 10:57:13 10° NNW 10:59:03 14° N 11:00:53 10° NE daylight
05 Sep - 12:33:23 10° NW 12:36:14 28° NNE 12:39:06 10° E daylight
05 Sep - 14:09:37 10° WNW 14:12:44 43° SW 14:15:49 10° SSE daylight
06 Sep - 06:48:15 10° SW 06:51:23 48° SE 06:54:32 10° ENE daylight
06 Sep - 08:25:06 10° W 08:27:55 26° NNW 08:30:44 10° NE daylight
06 Sep - 10:03:18 10° NW 10:05:07 14° N 10:06:56 10° NNE daylight
06 Sep - 11:39:55 10° NNW 11:42:25 20° NNE 11:44:56 10° ENE daylight
06 Sep - 13:15:55 10° NW 13:19:10 89° SW 13:22:25 10° SE daylight
07 Sep - 05:55:12 10° S 05:57:53 24° SE 06:00:36 10° ENE visible
07 Sep - 07:31:03 10° W 07:34:09 40° NNW 07:37:15 10° NE daylight
07 Sep - 09:09:10 10° NW 09:11:11 15° N 09:13:13 10° NNE daylight
07 Sep - 10:46:24 10° NNW 10:48:32 16° N 10:50:41 10° NE daylight
07 Sep - 12:22:21 10° NW 12:25:31 49° NNE 12:28:40 10° ESE daylight
07 Sep - 13:59:15 10° W 14:01:41 19° SW 14:04:04 10° S daylight
08 Sep - 05:03:00 10° SSE 05:04:25 13° SE 05:05:57 10° ESE visible
08 Sep - 06:37:13 10° WSW 06:40:27 73° NW 06:43:42 10° NE daylight
08 Sep - 08:14:54 10° WNW 08:17:17 18° NNW 08:19:39 10° NNE daylight
08 Sep - 09:52:45 10° NNW 09:54:36 14° N 09:56:29 10° NE daylight
08 Sep - 11:28:50 10° NW 11:31:46 30° NNE 11:34:41 10° E daylight
08 Sep - 13:05:09 10° WNW 13:08:12 37° SW 13:11:13 10° SSE daylight
09 Sep - 05:43:40 10° SW 05:46:50 56° SE 05:50:02 10° ENE visible
09 Sep - 07:20:40 10° W 07:23:25 24° NNW 07:26:10 10° NE daylight
09 Sep - 08:58:51 10° NW 09:00:39 14° N 09:02:27 10° NNE daylight
09 Sep - 10:35:21 10° NW 10:37:56 21° NNE 10:40:31 10° ENE daylight
09 Sep - 12:11:23 10° WNW 12:14:37 78° SW 12:17:52 10° SE daylight
